Theta_e
331 333 334 333 333 337 338 338 339 341 342 341 340 341 340 338 339 338 342 345 345 344 342 340 338 336 336 333 330 331 332 333 333 336 336 337 339 341 341 340 341 342 342 342 341 340 340 340 340 341 342 342 341 340 334 335 337 340 337 338 336 336 337 339 338 338 334 332 333 332 332 336 336 336 336 335 333 331 331 330 331 333 334 334 335
330 332 332 333 333 336 338 338 338 337 339 341 341 342 340 340 339 340 342 344 346 342 343 340 338 334 333 330 330 330 329 329 330 335 337 337 338 340 341 340 341 341 341 341 341 341 340 340 340 339 339 340 340 339 333 334 337 337 337 335 337 335 335 337 336 336 330 327 325 325 328 329 334 335 331 331 331 330 330 331 331 329 327 329 331
330 332 332 332 333 334 336 338 338 339 339 340 341 341 339 339 341 341 344 344 346 346 337 338 338 339 335 333 330 327 330 334 332 335 335 334 337 339 341 341 340 339 340 341 342 342 342 341 339 339 339 338 337 337 336 334 335 336 336 335 333 335 334 336 337 335 326 329 329 325 320 321 327 329 329 328 329 330 329 328 329 326 325 327 328
328 330 331 332 333 334 334 335 337 337 337 338 336 333 338 338 340 342 344 344 345 345 340 343 343 343 342 339 336 333 331 336 338 336 335 334 334 334 338 341 341 340 340 340 341 341 342 341 340 339 339 341 339 338 338 333 331 334 336 337 336 331 330 330 335 335 333 330 322 321 321 319 317 317 321 325 327 327 325 325 325 324 325 325 326
330 330 331 332 332 332 329 327 328 329 331 333 338 338 338 337 341 343 345 345 346 345 344 343 341 340 338 338 336 334 334 333 332 331 333 333 333 333 333 335 336 339 340 339 338 339 341 341 340 339 339 339 339 338 337 338 337 338 337 336 335 332 329 330 332 335 335 335 329 324 320 316 316 320 321 322 327 323 322 323 324 323 324 324 324
332 332 331 332 326 325 325 326 325 326 328 331 336 339 340 340 341 342 342 343 344 344 343 341 339 335 333 329 326 326 325 327 326 327 328 329 328 333 333 332 332 334 335 335 335 335 338 337 336 334 335 336 336 336 336 336 337 337 337 335 332 333 332 330 329 333 335 336 336 336 333 322 319 322 320 314 323 323 322 321 322 322 323 322 323
332 333 332 329 325 325 326 328 330 331 334 336 336 333 332 333 330 332 337 337 339 341 341 340 337 335 334 331 328 327 324 327 329 329 328 327 329 329 330 334 332 333 334 334 334 334 334 333 333 332 331 332 333 333 331 332 330 330 337 335 334 334 334 330 330 330 333 335 336 336 335 330 331 321 320 318 315 318 319 319 319 320 321 321 320
330 331 330 329 328 327 327 328 330 332 336 336 333 330 332 332 332 330 331 333 335 338 339 340 337 335 333 331 329 326 326 325 328 329 329 328 326 327 328 331 332 332 331 331 334 333 333 331 332 332 330 329 328 329 331 330 332 334 338 338 336 335 334 331 329 331 329 330 334 333 331 333 334 331 326 320 317 312 311 317 319 322 322 321 321
327 327 329 330 328 328 329 329 330 332 331 328 330 331 328 328 327 328 329 331 332 334 336 337 338 337 333 331 329 329 328 328 327 327 327 328 327 327 327 327 331 332 331 332 332 330 331 330 331 331 330 329 327 328 331 331 333 334 336 336 334 333 332 333 331 329 331 330 331 331 330 328 327 329 330 326 318 313 311 312 314 318 320 319 320
325 326 329 330 329 329 331 331 330 331 329 329 328 325 326 327 326 324 325 327 330 331 333 335 336 336 333 331 330 328 327 327 327 326 327 328 326 327 326 326 327 330 332 331 331 329 330 330 330 331 331 329 328 331 331 331 332 333 334 335 334 333 333 332 331 331 332 332 331 330 328 326 326 325 324 322 318 318 313 310 314 314 313 315 318
323 325 328 329 329 329 330 330 329 328 327 326 325 324 325 325 327 323 323 326 328 330 331 333 334 334 332 332 331 330 328 327 325 325 324 325 325 326 325 325 327 328 329 330 330 329 330 331 331 329 330 330 328 328 330 329 332 335 337 336 335 333 333 334 333 333 332 331 330 328 326 322 320 318 319 318 316 315 314 313 314 313 313 313 315
323 324 326 326 326 327 329 328 327 326 324 324 325 325 323 323 325 325 325 327 328 329 331 333 333 334 334 333 331 331 330 327 325 323 323 322 323 323 323 325 326 327 328 326 328 329 329 330 331 329 328 329 328 329 330 331 332 333 336 335 334 334 334 333 333 333 332 330 328 325 324 324 322 320 318 317 316 315 316 314 312 312 312 313 314
322 323 325 325 324 326 328 326 324 323 323 323 323 325 325 323 325 327 328 329 329 329 330 332 332 333 334 334 332 332 328 327 325 324 323 321 321 321 323 322 324 324 324 325 327 328 328 328 328 327 327 329 329 328 329 330 331 332 335 335 335 334 334 334 332 330 327 324 322 321 316 316 316 316 317 316 316 317 317 312 312 312 310 311 313
322 323 324 325 324 326 329 327 325 324 325 324 324 325 323 324 325 327 327 330 331 329 330 330 331 333 334 334 333 330 328 327 325 323 323 322 321 322 322 323 323 324 324 325 325 326 327 328 329 329 329 329 328 329 329 327 327 325 329 330 330 330 330 329 327 327 326 323 321 316 316 314 315 316 316 316 315 315 314 314 313 314 312 309 311
322 322 322 324 325 328 328 328 326 325 324 324 324 326 326 324 323 325 325 326 328 328 329 330 331 331 331 331 330 330 327 326 324 325 324 323 322 323 324 324 323 323 322 325 326 327 328 327 327 326 327 328 328 327 327 327 327 325 325 327 326 325 323 323 323 323 321 319 320 316 315 315 314 315 314 313 314 316 316 316 314 310 310 310 309
321 322 322 325 327 327 326 326 326 324 325 325 324 326 327 326 325 327 325 325 326 327 328 330 329 330 330 330 331 331 328 327 325 326 326 326 324 322 324 325 324 323 325 325 327 327 325 324 324 324 325 326 326 325 324 323 324 322 321 323 322 321 322 321 320 320 321 320 319 317 316 315 318 316 317 316 315 317 318 318 316 313 309 306 308
321 321 322 324 326 325 326 328 325 323 324 325 326 325 325 326 326 326 324 326 327 327 328 328 329 329 329 330 329 328 327 325 324 325 326 327 326 325 322 323 324 324 324 325 325 325 325 324 322 322 323 323 323 322 321 320 320 320 320 319 320 320 319 318 318 318 319 318 319 319 317 317 317 319 317 317 317 317 318 318 316 314 314 309 307
320 321 323 324 325 324 323 325 323 323 324 324 326 326 326 326 325 325 325 326 326 326 327 327 327 327 328 328 328 328 326 327 326 326 327 325 324 323 327 322 321 323 323 323 323 323 322 321 319 319 321 321 321 319 318 318 319 317 318 317 316 317 316 317 316 316 317 318 319 318 318 316 319 319 318 320 319 318 315 315 315 316 315 311 310
319 320 320 321 322 323 323 322 322 323 326 326 327 327 327 328 327 329 328 329 327 327 327 328 328 328 328 327 327 326 326 326 327 327 326 325 323 320 321 323 323 322 322 323 322 320 320 319 318 317 318 319 319 318 318 317 317 315 315 314 316 316 315 316 317 317 317 319 319 318 319 317 319 319 319 320 320 318 317 316 316 318 318 318 315
318 319 320 321 321 323 323 322 321 323 324 325 327 327 327 328 329 329 330 329 328 327 328 328 328 328 327 327 327 324 323 323 325 326 326 325 322 320 320 322 322 321 321 321 320 319 319 318 317 317 315 315 315 316 317 317 317 316 315 314 316 316 314 314 315 317 315 318 318 318 317 317 318 317 318 319 318 320 320 317 318 318 317 318 317
317 318 318 318 321 322 323 324 322 322 323 326 326 326 327 328 328 328 329 328 328 328 328 328 328 328 328 326 324 323 323 322 325 328 325 325 324 322 321 321 321 322 322 320 319 319 318 319 318 317 316 316 316 317 317 317 316 316 316 316 316 315 314 314 315 316 316 317 316 316 316 316 318 317 317 318 317 318 319 318 318 317 316 317 316
314 314 315 316 318 320 322 323 324 323 323 323 325 326 326 326 325 326 327 327 327 327 327 327 328 329 328 326 323 324 323 323 324 326 326 326 325 324 324 324 323 323 323 318 318 320 320 319 318 318 319 318 317 317 319 319 316 316 317 317 317 315 314 314 315 313 315 316 317 314 313 315 316 314 316 314 315 315 315 315 315 316 314 315 317
311 312 312 313 314 316 317 320 322 324 324 324 326 325 325 326 326 326 326 326 327 328 328 328 327 328 327 326 324 325 324 324 323 325 327 326 326 327 325 324 322 322 322 322 319 320 320 319 319 319 319 319 318 317 319 320 320 319 317 318 318 317 317 316 315 314 312 314 315 315 314 315 316 316 316 316 316 314 314 313 314 314 314 314 313
310 311 311 312 312 313 313 315 318 321 322 323 324 325 326 326 326 326 326 326 326 327 328 328 328 328 328 328 327 326 326 325 324 324 326 328 327 327 325 325 323 323 320 323 323 319 319 319 318 318 319 319 319 319 319 318 317 318 319 319 319 319 318 318 317 316 314 315 315 315 315 316 315 316 316 315 315 315 315 314 314 315 314 312 316
309 308 308 309 310 310 310 312 313 317 320 322 323 323 324 324 325 325 326 325 325 327 327 326 326 327 328 327 327 326 326 326 325 324 327 328 328 327 326 325 325 324 322 322 322 321 320 319 319 317 316 317 318 319 319 319 319 319 318 319 319 319 320 319 319 319 317 318 317 317 317 316 316 316 317 316 316 315 314 315 315 313 312 313 315
307 308 308 308 308 309 309 310 311 312 314 317 321 322 323 323 324 326 325 326 325 327 326 326 326 326 327 327 327 326 325 326 326 326 329 329 328 327 327 326 325 324 324 323 321 321 319 319 318 317 317 317 319 319 319 320 321 322 323 323 322 321 320 319 320 320 319 319 319 318 318 318 317 317 317 317 318 316 314 315 314 313 312 313 315
306 307 307 307 307 308 308 309 309 310 312 313 314 316 319 322 323 323 324 325 326 326 327 326 326 326 326 326 326 325 325 326 327 327 327 327 326 327 326 326 325 325 325 324 323 321 321 320 319 319 319 319 320 321 323 324 324 325 325 324 325 324 322 322 321 320 320 320 320 320 320 320 319 319 318 318 319 317 316 315 315 314 312 312 313
306 306 306 305 306 307 307 308 308 308 309 310 311 312 314 316 318 322 323 325 325 326 326 326 326 326 326 326 326 327 326 325 326 326 326 327 326 326 326 326 326 325 325 324 324 322 322 321 322 321 322 324 324 323 322 322 323 324 324 324 324 324 325 325 324 323 322 321 321 321 321 320 320 320 320 320 320 318 317 316 315 315 313 312 312
304 304 305 305 305 306 306 307 307 308 308 308 308 310 311 313 315 318 321 322 324 324 324 324 324 325 326 326 327 327 326 326 325 326 326 326 326 327 326 325 325 325 326 325 325 324 323 322 323 324 324 323 322 322 321 322 322 322 322 322 323 323 323 323 324 324 324 323 323 322 321 322 322 318 309 310 309 309 320 317 317 316 314 312 312
302 303 304 304 304 305 305 306 306 306 307 306 307 307 308 308 310 312 316 320 323 323 323 323 323 324 325 325 326 327 327 326 325 325 325 326 324 325 325 324 324 323 325 325 325 324 323 324 323 323 323 323 323 322 315 306 310 320 321 319 321 322 322 323 323 322 321 322 322 323 324 318 312 309 307 303 301 300 302 314 319 318 313 312 312
300 301 301 302 303 304 304 304 304 305 306 306 307 307 308 308 308 309 310 313 319 321 322 320 322 323 324 324 325 326 327 327 326 326 324 324 324 326 325 324 323 323 324 324 324 323 323 322 322 323 323 322 320 320 302 300 301 303 316 321 322 322 321 321 321 318 321 322 324 324 327 319 314 310 311 300 298 298 298 297 296 298 304 319 313
298 299 300 300 300 301 301 302 303 303 304 304 306 306 307 307 308 308 309 310 312 313 316 318 320 321 322 322 323 324 324 325 326 325 325 325 325 325 325 324 324 324 323 325 324 323 322 322 322 321 323 324 322 309 299 300 299 299 305 320 322 320 319 319 319 319 318 318 319 321 323 324 325 326 323 319 306 297 295 296 295 296 292 290 293
297 298 298 299 299 300 301 301 301 301 301 303 304 305 305 306 307 309 309 309 310 310 311 311 313 315 319 322 322 322 322 322 323 323 324 324 323 324 324 324 325 325 325 323 322 322 321 321 320 319 319 321 322 304 299 298 298 297 297 309 320 320 318 317 317 319 319 319 319 320 320 322 320 309 314 320 322 316 296 293 294 293 293 292 291
298 298 298 299 300 301 301 302 301 302 302 303 303 303 304 306 307 308 308 309 309 309 311 311 311 311 312 315 319 320 321 322 323 323 322 322 322 322 323 324 325 325 324 322 322 321 321 320 319 319 320 322 322 305 299 298 298 297 295 302 320 318 319 319 320 319 320 320 319 319 319 320 320 319 320 320 320 320 312 308 306 305 306 303 293
298 299 299 299 300 301 301 301 301 301 302 303 302 303 303 304 305 305 307 308 308 308 309 310 310 310 311 311 313 317 320 321 322 322 322 321 321 322 322 323 323 323 322 321 321 320 320 320 320 321 321 321 323 300 297 297 298 297 293 298 318 320 319 319 319 319 319 319 318 319 318 317 315 312 308 306 315 316 313 311 309 308 308 308 311
298 298 299 299 299 299 300 300 301 300 300 301 301 302 303 303 303 303 304 306 307 307 307 308 308 309 309 310 311 312 314 317 320 321 321 320 320 321 322 324 323 322 322 322 321 321 320 320 321 323 322 321 327 296 297 297 296 294 293 314 319 318 316 316 317 318 317 318 318 318 317 316 314 309 298 291 298 313 313 310 308 309 308 305 301
298 299 299 300 300 299 300 300 301 301 299 300 301 301 302 302 302 302 302 303 305 305 306 307 307 308 308 309 310 310 311 313 314 318 319 321 321 321 322 324 323 322 321 320 321 321 322 322 322 322 322 321 323 302 296 295 294 293 302 316 317 315 315 315 315 316 315 315 314 314 315 314 311 307 294 292 293 297 312 310 309 308 307 306 303
297 298 298 299 299 299 300 300 300 300 300 300 300 300 300 301 301 302 301 302 303 303 304 305 306 307 307 308 309 309 310 311 312 313 316 319 321 323 323 323 322 321 320 321 322 321 322 322 322 320 321 321 318 301 293 295 294 297 306 316 315 314 314 314 314 314 314 311 305 296 307 314 310 306 291 293 292 305 311 310 309 308 307 306 305
297 296 296 297 298 298 298 299 299 299 299 300 300 300 299 299 300 300 301 301 303 303 303 304 305 306 307 307 308 309 309 310 310 312 315 315 318 322 323 324 322 322 321 321 321 321 321 321 321 320 309 316 315 301 293 294 295 297 309 316 314 313 312 312 312 311 311 310 306 301 294 301 305 299 289 292 291 301 312 310 310 308 307 307 306
296 297 296 297 297 297 297 298 297 298 299 299 299 299 299 300 300 300 300 300 302 302 302 303 304 305 306 307 308 308 309 309 310 311 313 315 316 318 320 322 323 322 320 320 320 320 320 319 320 319 319 316 310 304 300 293 296 296 298 317 314 312 311 311 311 309 309 308 306 303 297 289 289 289 290 290 291 292 310 311 311 310 308 306 306
295 295 295 295 296 296 296 296 297 298 298 298 298 298 298 298 299 299 300 301 302 303 302 303 303 304 304 305 306 307 308 309 309 310 312 313 314 316 318 320 320 320 319 318 318 318 319 319 319 319 318 317 313 309 303 293 294 295 294 298 315 313 313 311 309 308 308 308 306 304 302 291 289 289 290 290 291 291 294 309 309 307 304 301 300
296 295 295 295 295 296 296 297 297 297 297 297 297 296 297 298 298 298 300 301 302 302 302 302 302 302 303 304 305 306 308 308 309 309 311 312 314 315 316 319 319 319 318 317 316 317 317 317 317 318 318 317 313 308 311 295 293 294 294 294 312 314 312 311 309 308 308 308 306 304 301 293 288 289 290 290 290 292 293 301 297 289 289 291 302
294 295 295 294 294 295 295 296 296 297 297 297 297 296 296 297 297 298 300 300 301 301 301 301 301 302 302 303 304 306 306 307 308 309 308 309 311 314 314 317 318 319 318 317 314 312 310 308 308 310 315 315 314 311 302 305 293 293 293 293 297 308 297 311 310 308 308 307 306 303 297 289 289 289 290 290 290 290 293 295 288 288 289 286 292
294 294 294 294 294 295 295 296 296 297 297 297 296 295 295 295 296 299 299 299 299 299 300 299 300 300 301 301 302 303 305 306 306 307 308 308 309 311 312 313 315 316 316 316 314 313 313 310 307 305 305 310 312 310 298 297 297 290 291 293 295 296 299 310 311 309 308 306 304 302 295 288 289 289 288 289 289 291 293 287 288 287 288 289 300
294 294 294 294 294 294 294 295 296 296 297 296 296 295 295 295 297 297 297 297 298 298 298 298 299 299 300 300 301 302 303 304 305 305 306 306 307 309 308 310 312 313 311 311 310 311 311 312 309 305 305 307 309 307 303 295 291 290 290 291 291 292 292 297 309 309 308 305 294 288 287 288 288 288 287 288 289 288 286 287 288 287 289 300 301
294 294 294 293 294 294 294 294 295 296 296 296 296 296 295 295 297 297 297 297 297 296 296 297 297 298 299 299 300 300 301 302 304 304 304 305 306 307 307 309 309 309 310 310 310 310 309 311 310 309 306 305 306 306 303 301 296 295 292 289 290 290 291 291 295 296 289 288 288 288 287 287 288 291 298 299 297 295 288 288 287 289 302 299 298
293 294 294 294 294 293 293 294 294 295 296 296 296 297 297 297 297 297 297 297 297 296 295 296 296 297 299 299 299 300 300 301 302 303 304 304 305 306 307 306 308 308 309 309 309 310 309 307 308 308 307 306 306 306 306 304 303 301 300 298 299 297 291 292 295 295 293 294 292 294 294 291 291 289 291 291 292 290 293 294 298 299 299 298 299
294 294 294 294 293 293 293 294 294 295 296 296 296 296 297 297 297 297 297 296 296 295 295 295 296 296 296 297 298 292 295 299 300 302 301 302 303 305 305 306 307 308 308 308 309 309 307 309 309 308 309 308 307 308 306 305 304 303 302 302 301 299 301 302 300 300 300 298 297 291 292 297 297 297 297 298 299 300 297 297 298 297 298 296 293
293 294 293 293 293 293 294 294 294 295 296 296 297 297 297 298 297 297 297 295 294 294 294 295 295 295 296 296 297 298 298 298 300 301 301 301 302 304 303 304 307 310 309 309 310 311 310 313 311 308 307 307 307 306 307 299 305 296 300 302 300 300 302 302 298 294 300 299 298 297 296 297 297 295 295 295 298 297 296 297 297 299 298 298 297
294 294 294 293 293 294 294 294 295 296 296 296 297 297 298 298 298 298 297 295 294 294 294 294 294 294 295 295 296 297 298 298 299 299 300 302 292 292 301 305 305 294 289 290 291 306 310 310 306 304 304 304 304 304 293 292 292 292 293 294 295 295 295 299 293 291 295 297 296 296 296 296 294 295 295 295 295 295 294 294 294 291 293 295 293
293 293 293 293 293 294 294 294 295 296 296 296 296 297 297 297 297 297 297 295 294 292 292 293 293 294 293 294 295 296 297 298 300 299 300 299 303 300 288 286 289 292 294 292 293 292 292 294 304 304 301 286 288 288 290 291 291 291 291 290 290 290 290 290 290 295 296 296 296 295 295 295 295 295 294 295 294 293 293 293 294 294 294 293 292
Wind_Speed
13 14 12 11 9 8 8 9 8 9 8 9 10 9 9 8 7 6 5 5 5 5 6 6 6 5 4 3 3 4 4 3 3 3 2 4 5 5 4 4 5 4 4 5 4 4 4 4 4 4 4 3 3 3 12 8 5 3 4 5 6 5 5 4 5 4 5 5 4 4 4 2 3 2 3 3 2 2 2 2 3 3 4 3 4
15 13 12 11 9 9 7 7 8 11 9 10 9 9 9 8 7 6 6 6 7 8 6 6 5 5 4 4 4 4 3 3 4 3 3 5 5 5 5 5 5 4 4 5 5 4 5 5 5 4 3 3 2 4 9 9 7 4 4 5 4 4 4 3 4 5 6 6 6 6 4 4 2 2 3 4 2 2 2 2 3 3 4 4 4
14 15 15 12 11 11 8 6 6 7 8 8 9 7 7 7 7 8 8 8 8 8 7 5 5 5 5 5 4 4 5 4 5 4 3 4 5 6 5 5 5 5 4 5 4 5 5 5 4 4 4 3 4 5 7 7 4 5 6 4 5 4 4 4 5 6 4 4 5 4 6 5 4 4 4 4 4 4 2 3 2 2 3 3 2
15 15 15 15 14 10 7 3 2 1 3 6 9 11 8 9 9 9 9 8 7 6 6 7 8 8 8 7 5 4 5 6 6 5 5 5 5 4 6 6 6 6 6 5 3 4 4 4 4 4 4 3 3 4 5 8 10 8 6 5 5 6 5 5 4 4 5 4 7 6 4 5 4 4 5 5 5 4 3 3 3 3 3 4 3
12 14 14 13 10 8 9 9 11 8 5 8 10 13 11 12 10 8 6 4 5 6 7 8 9 8 7 7 7 7 6 5 5 6 5 5 5 4 5 6 6 6 6 6 6 5 4 3 3 4 4 3 3 3 4 4 5 6 6 5 5 5 6 4 4 5 6 5 6 4 5 6 5 7 7 6 2 4 4 4 4 4 4 3 3
9 11 12 11 13 15 13 13 13 12 11 10 7 6 8 9 10 8 6 4 4 6 7 6 7 8 7 7 6 5 5 5 5 5 5 4 5 4 4 3 5 5 5 6 6 5 5 4 3 3 3 3 2 3 3 3 4 5 6 6 6 5 4 6 5 5 6 5 5 4 4 3 5 6 7 6 4 4 4 5 5 5 4 4 4
7 7 9 15 18 16 13 12 13 13 11 8 8 11 12 10 11 8 6 6 5 5 5 5 6 6 6 5 4 4 4 4 4 4 4 4 4 4 4 3 4 5 5 6 6 5 4 4 2 1 2 2 2 3 3 3 4 4 5 5 5 5 6 6 6 6 5 5 4 3 1 2 5 9 6 6 6 5 4 5 6 6 6 6 6
5 6 10 15 16 14 13 11 10 8 6 5 10 10 11 11 11 8 3 6 5 4 5 4 6 6 5 5 5 4 4 6 5 4 3 3 4 5 5 5 4 5 6 6 6 6 4 4 2 1 1 2 3 3 3 2 2 3 3 3 4 4 5 4 5 5 6 5 4 4 3 3 3 1 1 6 6 6 6 6 7 7 6 6 6
5 7 9 14 12 12 11 11 10 10 12 12 8 7 7 9 9 8 7 6 5 4 3 3 4 6 5 5 5 5 6 6 6 5 4 4 5 4 4 5 5 4 5 6 5 5 4 3 3 3 2 2 2 3 3 4 3 4 5 4 4 3 3 2 4 5 4 4 5 4 4 4 4 3 1 3 5 7 7 7 7 7 6 6 5
7 8 10 12 12 11 10 10 11 12 13 11 10 8 8 6 8 8 7 5 4 4 3 2 3 5 5 5 6 5 5 5 5 5 5 5 5 5 4 4 5 5 4 5 5 5 4 4 4 5 4 3 3 3 3 4 4 4 4 3 3 3 3 3 3 3 3 5 5 5 5 5 5 5 5 4 5 5 6 7 7 7 7 5 4
8 10 11 13 12 11 10 11 16 15 11 6 6 9 6 6 4 9 6 4 4 4 3 3 3 4 4 5 6 6 7 6 6 6 5 5 5 5 4 4 4 5 5 5 5 5 5 5 5 5 4 4 3 3 3 3 3 3 4 4 3 3 3 3 3 2 3 4 5 4 4 4 4 5 5 4 4 5 7 7 7 7 8 7 5
10 11 13 15 13 11 12 16 18 17 13 11 9 8 10 2 4 7 4 4 4 4 4 4 3 4 3 5 6 5 6 6 7 7 6 6 5 5 5 5 5 5 5 5 5 5 5 5 5 5 4 3 4 3 3 4 3 3 4 4 4 3 4 3 4 4 4 4 3 3 2 2 3 3 3 3 3 5 5 7 7 7 7 6 6
10 11 13 13 12 12 15 18 17 15 10 4 2 5 8 8 7 9 7 6 5 6 7 6 5 4 3 4 5 5 4 4 6 6 6 6 5 5 6 6 6 6 5 6 5 5 5 5 4 4 4 4 4 4 4 4 4 4 5 5 5 5 4 4 4 5 5 4 3 2 2 3 2 3 2 2 2 4 5 6 6 5 5 6 6
10 11 12 12 12 12 16 19 15 15 13 10 7 5 11 10 10 10 12 10 9 9 9 8 7 5 3 1 3 4 4 3 4 5 5 5 5 5 5 6 6 6 6 6 5 5 5 6 6 6 5 5 5 5 5 4 4 4 5 6 7 5 5 5 5 5 4 4 2 3 3 4 4 3 3 2 4 5 5 5 6 5 5 5 5
9 10 11 12 12 13 14 17 17 15 13 11 12 10 6 9 8 5 2 0 7 8 7 8 7 7 5 4 4 3 5 4 4 5 6 6 5 5 5 5 6 6 6 6 6 6 6 6 6 6 6 5 5 5 4 5 3 4 5 5 5 4 5 4 4 4 3 4 4 4 4 4 3 3 2 3 4 3 4 5 5 6 5 3 4
9 10 11 13 14 15 15 15 17 15 15 14 12 10 7 8 10 6 5 6 6 6 6 7 8 7 8 7 5 4 4 4 4 4 5 6 6 6 5 4 5 6 6 6 5 5 6 6 6 6 6 6 5 5 4 4 4 4 5 5 5 3 4 4 4 4 4 5 4 4 4 5 4 4 4 3 3 3 4 5 4 4 5 5 4
9 9 10 13 13 10 9 11 11 15 11 11 12 13 13 9 8 11 13 9 4 7 8 8 7 8 8 6 5 6 5 6 6 6 6 6 6 5 4 5 5 5 5 5 5 5 5 6 6 6 6 5 5 4 4 4 4 4 5 5 4 3 3 4 3 4 4 3 4 4 5 5 5 5 5 5 4 3 4 3 3 3 2 4 5
9 10 8 7 8 9 5 5 11 11 13 14 14 12 11 12 12 14 14 11 9 9 9 9 9 8 8 8 7 7 6 6 6 7 5 6 6 5 2 4 5 5 4 4 5 6 6 6 6 6 5 5 5 4 5 5 4 5 5 4 4 4 4 4 4 4 3 4 4 4 4 5 4 5 5 5 4 4 3 3 1 2 2 2 3
8 8 7 5 4 4 5 6 8 11 12 13 12 11 12 12 12 12 12 11 11 9 9 8 8 6 6 9 9 8 7 7 7 7 5 4 6 7 1 2 4 5 5 5 5 6 5 6 6 6 6 6 5 5 5 5 5 5 5 5 4 4 4 4 4 4 4 4 4 4 4 5 4 4 4 4 4 4 4 4 4 3 4 3 4
7 7 8 8 7 6 7 8 10 12 12 12 12 10 10 10 10 10 10 9 9 10 10 10 9 7 7 9 9 8 7 7 6 7 5 4 5 8 6 4 2 2 5 5 5 6 6 6 6 6 6 6 6 5 5 5 5 5 5 5 5 5 5 5 5 4 4 4 4 4 4 4 3 3 3 3 3 3 3 4 4 4 4 3 1
8 8 8 9 9 9 9 7 8 8 8 9 10 11 10 8 8 9 10 12 11 10 10 9 9 9 10 11 10 9 9 7 6 5 5 3 5 7 6 6 6 4 5 6 6 6 7 6 7 6 7 6 6 5 5 4 5 5 4 5 5 4 5 5 4 4 4 4 4 4 4 3 1 1 3 3 3 3 3 2 3 3 3 2 2
9 9 9 8 9 10 10 9 9 9 9 9 8 8 9 9 9 9 9 11 11 11 10 9 9 8 11 11 11 9 8 7 7 5 5 4 5 5 5 5 5 5 4 5 6 5 5 6 6 6 6 6 6 6 5 4 5 5 5 3 3 4 4 5 4 4 4 2 2 3 4 3 1 2 1 3 4 3 4 4 4 2 3 3 0
9 9 9 9 9 10 11 12 11 11 10 10 9 8 9 9 9 9 9 10 11 11 10 8 9 9 11 11 11 10 9 9 8 6 5 5 5 5 6 5 5 4 4 3 5 6 6 5 5 5 6 5 6 6 4 4 4 4 5 4 3 3 3 4 4 4 5 4 3 2 3 3 1 1 1 1 1 2 2 3 2 2 2 2 2
11 10 10 10 10 10 11 12 12 10 10 10 9 8 8 8 8 8 8 8 8 8 8 9 9 9 11 11 11 10 10 9 9 7 6 5 5 5 5 5 6 5 6 5 5 7 7 6 6 5 5 5 5 5 5 4 4 3 3 4 3 3 2 2 2 3 4 4 4 3 3 3 3 2 2 2 2 1 2 2 3 3 3 2 2
12 12 12 12 12 13 12 11 10 10 9 8 9 8 8 7 6 7 7 6 5 6 6 7 7 8 9 9 10 10 10 10 9 8 6 5 4 4 4 5 5 6 6 6 6 6 7 8 7 7 7 6 6 6 6 5 4 4 4 3 3 3 2 3 3 2 2 3 4 4 3 4 4 3 3 3 2 2 3 2 2 2 3 3 2
12 13 14 15 13 13 12 11 11 10 10 9 8 8 8 8 6 5 6 6 5 4 5 5 6 7 7 9 9 9 9 9 9 8 7 5 4 4 4 4 5 5 6 6 7 7 7 8 8 8 8 7 7 6 6 5 5 5 4 3 2 2 3 3 4 4 4 4 4 5 5 5 5 5 4 3 3 4 3 3 2 3 2 3 2
13 14 13 14 15 15 14 13 12 12 11 10 9 10 9 8 7 6 6 6 5 4 5 5 5 5 6 8 9 9 8 8 8 8 6 5 5 6 7 6 6 6 6 7 8 8 8 8 8 8 8 8 8 7 6 5 4 3 2 2 1 2 2 3 3 5 5 5 6 6 6 6 6 6 6 6 5 5 4 4 4 3 3 2 3
13 14 15 15 15 15 15 14 14 13 12 11 11 11 10 9 8 6 5 4 3 3 4 3 3 4 5 6 7 8 8 8 7 7 7 6 6 6 6 6 6 6 6 7 8 9 9 9 9 9 9 8 8 7 6 5 3 2 2 2 2 2 2 3 4 5 5 5 6 7 7 8 7 7 7 7 7 7 5 6 6 4 4 4 4
14 15 15 15 15 15 15 15 14 14 14 14 12 12 11 10 9 7 6 5 3 2 2 3 3 4 4 5 5 6 7 8 8 8 7 7 7 6 6 7 7 7 6 6 7 8 9 9 9 9 10 8 8 6 4 3 2 2 3 4 5 5 5 5 5 6 6 6 6 6 7 8 6 2 5 5 6 5 5 7 6 6 6 5 5
14 14 14 14 15 15 15 15 15 15 15 13 12 12 11 10 9 8 7 6 4 2 2 2 2 2 3 4 5 6 6 7 8 8 7 7 7 8 7 7 7 7 7 7 8 8 9 10 11 10 9 8 6 5 8 10 3 2 3 3 4 5 6 6 6 8 8 6 6 5 5 3 5 2 3 4 5 6 7 7 6 5 6 6 6
14 14 14 14 14 14 14 15 15 14 13 12 11 11 10 10 9 9 8 6 5 4 3 1 3 1 1 2 4 5 6 6 7 7 8 7 8 8 8 8 9 9 9 9 10 11 11 11 11 10 10 7 6 6 12 12 13 7 2 2 3 4 5 6 6 8 7 6 6 5 4 8 6 5 7 8 7 6 7 9 6 10 6 2 6
13 13 13 14 14 14 14 14 13 13 13 12 10 10 10 9 8 8 8 8 7 6 4 3 2 1 0 2 2 3 5 5 6 6 7 7 9 10 9 9 9 10 9 9 10 11 11 11 10 10 9 7 7 8 13 13 13 15 12 5 2 2 4 5 6 6 6 6 5 4 4 3 3 2 2 6 8 9 8 3 1 3 6 8 8
13 13 13 13 13 13 13 12 12 12 11 12 11 10 10 9 9 8 7 6 6 6 6 6 5 2 0 2 2 3 4 5 5 6 6 7 9 10 10 10 10 10 10 11 11 11 11 10 9 10 9 8 8 13 13 12 11 12 11 6 4 4 5 6 5 5 4 4 4 3 3 2 2 4 5 4 3 6 6 6 7 9 9 8 8
12 12 12 12 11 10 11 11 11 11 11 10 11 11 10 9 9 8 8 6 5 6 6 6 6 5 4 2 3 4 5 5 5 5 6 7 9 10 9 9 9 9 10 11 12 12 11 11 11 12 11 9 10 13 17 14 12 12 10 7 6 6 6 4 3 2 1 0 1 1 1 1 2 1 2 1 1 3 5 5 6 6 5 6 6
10 11 11 10 10 10 11 11 11 11 10 10 11 11 10 9 9 9 8 7 6 6 6 6 6 6 6 5 4 3 4 5 5 6 6 7 8 9 10 9 8 9 10 11 12 12 11 12 11 11 11 11 8 13 13 14 14 13 12 7 7 6 6 5 4 3 2 2 2 2 1 2 3 4 4 6 2 2 3 4 6 7 6 6 4
9 9 9 9 10 10 10 9 9 9 9 10 10 10 10 9 9 9 8 8 7 6 7 7 7 7 7 6 6 5 4 5 6 6 7 8 8 9 9 8 8 8 9 9 10 11 12 11 12 11 10 11 6 15 14 15 13 13 13 8 8 7 6 6 5 4 3 3 2 2 2 3 4 5 5 6 6 1 5 5 7 7 6 6 7
8 8 8 8 8 8 8 7 7 8 9 9 9 9 9 8 8 8 9 8 8 8 8 7 7 8 8 8 7 6 5 5 5 7 7 8 9 9 8 8 8 8 9 10 10 11 10 11 12 11 8 10 6 13 15 14 13 15 12 9 9 8 7 6 5 5 4 4 4 4 2 3 5 5 3 4 4 6 6 6 6 6 5 5 6
8 8 8 8 7 7 7 7 8 7 8 8 8 9 8 8 9 9 9 9 8 8 9 9 9 9 9 8 8 7 7 6 5 5 7 8 8 8 8 7 8 9 10 10 10 10 9 7 6 6 5 4 2 8 12 13 14 15 12 10 9 8 8 6 6 4 4 5 7 10 9 3 5 5 2 3 5 5 4 5 5 6 5 5 5
8 9 10 9 8 8 8 8 8 8 9 9 10 10 9 9 9 9 9 9 9 9 10 10 9 9 9 9 8 9 8 8 7 7 5 7 8 9 8 8 8 9 10 9 9 10 9 7 5 4 8 5 5 5 5 12 15 16 10 9 8 8 7 7 7 6 6 5 6 8 11 9 7 5 5 6 8 6 3 2 3 3 4 4 4
9 10 10 9 9 10 10 10 10 9 9 9 8 8 8 8 8 8 9 8 8 9 10 9 9 9 9 8 8 8 8 9 9 8 7 6 5 7 9 10 9 9 9 9 9 10 10 8 6 6 4 7 9 10 8 9 12 12 14 7 9 8 8 8 7 7 6 6 7 6 7 8 9 9 9 10 10 11 3 3 2 3 4 3 4
8 9 9 8 8 8 8 9 8 8 9 8 8 8 8 8 8 8 8 8 8 8 9 9 9 9 10 10 9 8 9 9 9 9 8 7 5 5 5 7 8 8 8 7 9 9 9 9 10 11 11 10 8 11 11 13 13 15 14 8 8 7 8 7 7 7 7 7 7 6 6 6 8 10 11 11 12 12 10 4 5 6 7 7 4
7 7 7 8 8 8 8 9 8 9 9 8 8 9 9 9 9 9 9 8 8 9 9 9 10 10 10 10 10 9 9 8 8 8 8 8 7 5 4 5 7 8 9 9 5 6 7 5 2 7 9 9 8 13 11 9 14 15 13 10 5 9 7 8 7 7 7 7 7 7 7 6 8 11 11 12 12 12 11 7 8 8 8 8 2
8 8 8 8 8 7 8 8 7 7 7 7 8 9 8 8 9 10 10 9 9 9 10 10 10 10 11 10 10 10 9 7 7 8 9 9 8 7 5 5 6 7 9 8 7 7 5 4 5 5 2 6 9 10 15 14 13 12 10 3 4 6 4 6 6 7 7 7 7 8 8 7 10 11 11 11 11 11 10 8 8 8 6 2 6
7 7 7 8 7 7 7 7 7 6 6 7 7 8 8 9 10 9 9 9 10 10 10 10 10 10 11 11 11 10 9 9 9 9 9 9 9 7 6 6 6 6 6 7 9 10 8 6 7 6 4 3 2 3 5 9 10 8 6 5 9 10 3 2 6 6 7 8 8 8 8 10 11 11 11 11 11 10 8 7 6 4 2 5 3
7 7 7 7 8 8 8 8 8 8 8 7 7 8 9 10 9 9 9 10 10 10 10 10 11 11 11 11 11 10 10 10 10 9 9 9 9 9 8 8 8 8 8 10 11 10 11 10 10 8 6 4 4 6 4 4 6 6 7 8 10 10 5 2 7 7 7 8 13 16 13 12 12 13 14 13 11 9 7 6 4 4 6 4 1
6 6 7 8 8 8 8 9 9 9 8 7 7 8 10 10 9 9 9 10 10 10 10 11 11 11 12 12 12 12 12 12 11 10 10 9 9 9 9 8 8 9 10 11 10 9 10 11 11 12 11 11 10 9 8 7 6 8 7 9 10 11 12 15 14 13 16 18 16 14 14 13 13 11 8 6 6 6 7 6 5 7 5 1 2
7 7 8 8 8 8 8 9 10 9 8 8 8 8 9 10 11 11 12 12 12 12 11 11 11 11 12 12 13 12 11 11 12 11 10 10 9 9 9 10 8 8 9 10 10 10 10 11 11 11 11 11 10 9 9 9 8 7 7 8 9 9 13 14 11 10 12 10 12 10 7 7 9 10 10 10 8 7 7 7 6 3 1 1 2
7 8 8 9 8 9 9 9 9 8 8 9 9 10 10 11 11 11 11 12 13 13 14 14 14 12 11 11 12 12 13 11 12 11 11 11 11 11 9 8 8 8 9 10 9 9 11 10 11 12 12 12 10 10 10 11 10 9 9 9 9 9 9 9 10 10 10 10 9 9 9 7 7 6 6 5 5 4 2 0 1 1 0 1 0
8 9 9 9 9 8 8 8 8 8 8 9 9 10 11 12 12 12 13 13 13 14 13 14 14 14 14 13 12 12 12 12 11 12 12 12 12 10 10 9 10 6 4 5 7 7 2 1 3 7 9 10 10 10 11 10 12 13 11 12 10 10 10 9 11 13 11 10 9 8 5 6 5 3 3 2 3 2 0 1 1 2 1 1 1
8 8 9 8 7 7 8 8 8 8 8 9 10 11 12 12 13 13 13 13 13 13 14 14 12 13 13 12 11 11 12 12 12 12 12 10 5 3 5 7 5 6 5 5 7 5 3 2 4 5 5 3 4 4 7 12 13 12 11 12 12 12 11 12 16 15 11 8 6 5 5 4 4 3 2 2 1 0 0 1 1 1 2 1 2
10 9 8 7 7 7 8 9 9 9 10 11 11 12 13 13 14 14 14 14 14 13 13 13 13 13 12 12 12 12 12 12 12 12 11 13 9 5 3 4 6 2 4 5 5 1 4 6 3 2 5 10 9 10 11 5 8 10 11 12 14 16 19 20 17 10 7 6 6 5 4 3 3 2 1 1 1 0 1 1 1 0 0 0 1
Wind_Direction
180 186 189 195 191 178 163 159 165 164 176 176 187 186 161 148 157 157 159 167 167 166 166 164 150 142 146 132 119 104 76 81 73 70 70 92 109 111 122 114 113 120 134 130 128 133 134 137 148 157 170 151 146 133 120 180 200 189 140 142 151 154 150 167 154 175 160 141 145 140 136 69 99 124 94 80 64 57 51 58 37 24 35 40 36
167 169 183 196 193 184 172 165 165 175 182 181 183 172 173 165 168 147 164 166 176 181 169 160 150 142 146 127 114 110 119 101 100 95 84 96 102 107 108 112 117 124 125 122 132 139 138 145 148 143 138 134 131 125 138 170 173 174 161 149 155 155 146 164 155 188 185 197 172 169 149 156 111 90 82 84 86 87 87 72 55 41 38 9 9
169 175 174 183 191 194 191 172 173 179 178 176 168 119 134 160 171 164 171 179 183 175 150 160 121 112 117 111 102 90 66 55 80 90 107 108 108 113 109 115 126 126 128 132 144 153 146 136 129 134 145 148 161 149 141 137 169 180 174 162 151 160 166 176 180 237 230 198 209 196 175 149 152 111 94 85 72 61 45 75 99 97 83 104 19
168 173 182 180 183 181 193 187 130 162 115 156 150 155 172 180 175 172 171 182 167 161 129 106 102 100 102 105 97 84 95 101 99 101 99 107 101 102 116 120 121 127 133 137 126 110 123 131 139 142 145 157 152 155 159 165 176 189 175 167 166 159 175 173 201 210 258 194 210 182 171 132 154 171 128 96 91 89 77 72 60 70 80 75 79
173 171 178 180 168 150 77 38 48 42 102 163 187 171 179 173 164 147 149 159 136 113 109 111 114 115 112 110 110 115 125 129 134 116 104 102 110 107 101 110 117 114 114 108 107 108 106 111 110 118 125 142 158 150 169 166 165 167 169 174 183 190 172 170 197 219 236 258 283 199 168 179 178 146 135 107 112 108 91 91 72 74 65 71 86
184 173 169 154 106 95 128 134 137 144 165 192 176 131 90 83 92 102 87 95 117 113 120 143 142 138 144 148 147 145 140 148 137 138 145 135 104 102 113 116 113 118 121 115 107 108 104 102 116 133 137 161 179 162 162 168 182 171 169 181 188 202 196 175 183 202 227 224 267 328 338 77 136 166 168 123 106 74 66 60 86 80 83 74 62
188 170 154 120 126 138 135 140 145 157 180 166 117 81 81 84 71 38 80 94 125 125 145 159 156 150 155 152 142 134 130 108 97 113 118 116 119 122 112 114 122 126 124 124 116 110 110 108 113 159 154 166 168 188 180 188 201 183 168 184 179 176 187 190 176 179 195 207 223 261 274 199 187 184 140 153 136 106 78 86 68 63 58 65 71
162 147 134 131 139 138 139 138 148 147 138 114 93 105 99 95 109 127 94 94 105 135 162 177 158 151 149 138 134 127 125 131 136 123 113 123 122 129 131 126 129 126 131 124 124 120 118 120 113 101 159 142 166 162 161 166 158 131 156 164 159 179 191 195 181 177 202 171 192 199 193 176 183 273 214 165 141 135 118 90 82 77 77 70 67
152 132 140 138 132 136 139 133 120 103 77 64 35 23 84 95 93 96 92 96 98 110 141 173 160 149 151 143 133 121 131 141 142 139 134 125 126 124 113 110 99 96 112 117 113 112 116 117 117 118 116 126 138 136 137 132 139 142 154 163 172 166 198 173 185 191 203 155 172 174 174 175 166 186 254 194 160 145 127 119 113 103 93 78 73
134 121 126 139 132 137 130 126 118 100 100 114 108 51 13 24 80 80 80 84 97 101 84 99 127 144 153 150 139 137 145 145 151 142 141 146 131 129 130 129 121 117 106 101 96 88 82 90 110 100 98 80 71 86 104 123 140 139 130 148 153 155 142 163 186 187 169 159 176 158 174 167 168 164 186 183 156 137 139 139 136 134 112 89 85
134 125 126 134 137 139 146 126 109 98 96 102 107 114 85 351 56 77 76 91 118 130 130 120 140 173 166 159 156 154 155 156 148 152 146 151 143 140 135 125 122 115 114 99 83 85 82 84 95 95 89 81 92 110 104 116 127 123 121 122 135 131 133 128 137 158 151 159 169 174 162 161 164 161 163 167 153 146 138 140 142 120 115 111 84
131 129 128 128 134 142 132 121 119 117 134 148 148 129 105 123 115 92 119 139 158 148 156 152 164 175 178 177 169 162 166 165 155 150 151 141 137 135 132 135 129 121 116 107 95 91 95 93 92 96 85 83 88 85 96 108 106 112 118 131 123 121 120 137 140 143 152 141 127 130 125 101 155 182 155 154 174 145 153 144 139 136 130 114 115
135 130 130 132 136 140 135 124 125 133 130 125 165 133 117 136 138 157 179 176 168 165 167 157 162 180 187 185 168 159 179 172 152 145 141 137 136 134 136 131 133 126 113 106 97 101 106 108 107 101 101 84 78 89 87 78 82 98 109 119 124 135 136 136 133 129 136 133 114 88 107 119 99 44 96 159 145 141 154 154 138 144 123 130 135
131 131 132 134 140 142 136 129 135 130 144 158 176 209 159 166 186 171 174 187 174 174 165 157 155 143 103 90 140 149 154 165 153 142 135 127 127 130 133 129 120 113 106 98 104 104 92 87 84 82 80 87 86 77 68 74 84 107 105 104 107 108 109 114 117 113 98 92 106 110 80 84 66 73 87 129 150 167 163 156 142 125 147 142 144
129 123 128 131 136 139 131 129 133 136 144 164 172 203 201 165 173 202 345 193 174 169 155 147 134 126 129 134 153 157 155 154 154 139 131 122 116 117 119 122 117 110 105 101 99 101 100 92 87 87 83 81 82 83 85 84 64 85 102 91 92 97 96 97 97 100 100 94 80 90 104 94 98 101 106 123 152 159 154 149 155 142 148 135 122
128 129 134 135 134 132 129 136 139 146 154 160 175 199 204 193 171 172 216 225 175 139 116 129 142 150 155 167 163 153 142 137 139 144 130 122 118 116 110 109 106 104 98 101 98 101 101 105 100 92 92 93 93 91 84 79 73 89 95 88 90 88 100 104 108 98 89 90 98 103 107 98 100 102 104 73 82 118 130 148 157 156 152 141 143
136 140 132 129 127 130 138 119 132 139 150 160 176 183 184 193 190 187 203 207 161 137 150 160 165 164 164 148 145 150 143 155 161 156 145 129 121 110 117 109 110 103 98 93 99 95 93 90 94 97 98 99 97 92 90 93 99 97 98 99 94 93 95 88 83 102 106 109 96 99 102 109 95 85 86 99 100 115 126 160 199 176 168 141 156
99 84 101 115 125 141 175 142 140 149 158 159 178 180 193 191 191 192 201 190 165 165 164 171 167 169 157 149 153 150 156 167 163 154 159 148 127 103 96 135 120 112 111 106 103 101 99 99 99 99 97 98 99 97 96 103 111 101 100 102 93 101 109 105 103 104 103 107 111 106 103 97 85 93 89 91 102 107 132 139 112 109 258 162 137
121 121 112 83 105 149 160 150 149 159 166 163 172 170 186 193 196 188 189 181 169 173 175 176 173 170 163 154 151 152 168 178 168 149 164 185 129 108 78 81 111 131 127 125 122 116 114 106 107 106 106 107 106 104 112 110 105 106 108 107 111 113 105 105 101 99 104 111 104 96 96 93 90 90 100 100 105 119 117 117 97 76 59 58 107
110 97 87 88 95 113 137 153 155 155 162 171 170 169 174 186 187 187 183 177 178 179 181 185 184 173 163 151 150 159 174 181 164 154 167 197 136 125 150 125 146 146 139 140 133 127 128 127 121 118 121 122 121 120 122 121 122 117 125 123 120 128 120 118 123 128 125 121 120 114 100 99 108 130 111 100 94 80 77 101 105 99 90 70 107
77 80 82 86 92 101 110 121 135 148 155 160 163 170 174 182 192 189 187 191 189 187 187 189 184 183 168 161 158 169 180 176 160 147 162 166 132 139 165 158 162 184 164 154 145 145 142 143 139 138 132 131 126 125 123 128 124 126 119 120 139 136 131 122 120 124 124 142 142 126 124 116 114 90 117 137 128 119 126 120 113 122 112 111 102
75 76 78 81 83 85 94 104 112 121 131 137 139 156 164 176 179 187 189 196 198 195 194 188 185 178 174 165 168 180 185 186 168 157 164 166 141 142 149 155 170 172 181 160 153 148 151 154 149 144 141 135 138 130 136 131 128 124 118 130 139 144 124 120 139 139 129 120 137 153 133 134 143 126 163 176 143 170 161 161 150 147 121 113 25
71 72 72 72 70 73 79 78 79 86 96 109 128 143 149 163 169 175 184 190 193 196 194 189 188 184 179 176 182 192 190 190 180 180 182 172 153 146 150 155 180 175 178 177 157 157 158 154 148 148 143 142 143 140 139 137 127 141 138 137 145 131 137 140 157 155 162 144 171 160 159 152 169 169 216 24 82 211 219 107 93 108 105 128 132
73 71 69 71 72 71 69 71 72 85 98 103 110 118 131 141 150 154 161 172 177 186 191 196 197 201 197 197 198 199 195 191 191 194 188 180 170 157 151 171 181 182 178 177 168 167 160 159 155 153 150 156 153 152 157 159 148 141 155 147 157 162 170 176 172 177 162 165 178 182 175 177 184 197 217 155 205 155 256 123 164 136 150 138 104
80 75 73 73 69 65 65 70 76 87 92 92 98 107 114 120 131 138 145 153 159 154 186 185 192 197 202 207 207 201 198 201 206 204 197 187 179 170 167 185 182 188 186 178 177 176 170 171 166 169 166 167 165 160 156 158 157 172 170 170 185 181 194 207 216 214 208 213 192 206 198 187 192 214 199 216 186 218 234 158 201 167 176 144 179
79 76 69 64 63 65 63 65 70 74 83 91 98 102 101 99 100 113 128 143 149 164 176 184 184 192 197 206 203 202 204 209 209 197 191 185 194 204 193 199 197 193 187 190 190 186 186 177 177 174 169 166 160 160 160 152 149 161 165 164 175 188 204 213 207 228 222 214 227 225 215 209 205 215 218 213 216 209 233 237 216 248 173 155 207
74 72 72 71 66 62 62 63 65 65 69 73 78 86 89 96 103 110 122 135 148 165 168 183 187 195 205 209 212 212 211 209 210 204 195 192 196 204 209 207 198 199 190 195 195 190 187 184 178 172 167 162 154 147 135 136 149 141 140 145 172 196 219 223 233 227 228 231 229 229 230 224 221 220 223 221 211 218 217 240 230 218 253 169 204
78 76 73 71 69 65 61 60 61 61 60 63 62 62 67 66 79 88 96 96 113 162 169 181 188 196 215 215 223 226 223 219 215 209 199 198 198 198 209 206 204 202 205 208 198 193 184 185 171 173 162 150 148 149 144 142 133 114 88 37 19 339 314 269 251 252 247 243 241 244 243 243 239 233 235 236 222 217 211 222 220 209 230 204 223
77 73 71 69 67 63 58 56 57 58 57 55 56 57 55 55 57 66 68 79 112 155 169 181 187 207 212 226 225 226 225 220 217 215 210 207 200 198 201 207 203 201 200 212 206 195 181 178 172 165 155 156 157 142 138 131 107 101 49 26 11 353 327 304 289 265 246 246 253 254 253 249 247 282 18 4 0 350 247 229 218 200 210 211 236
73 70 68 65 64 62 59 56 52 50 50 52 54 55 55 52 49 46 54 62 78 99 150 163 200 205 225 231 234 228 227 227 226 227 223 208 208 203 204 210 209 209 194 195 191 187 184 178 176 167 166 168 162 161 138 124 89 60 21 12 352 333 323 313 310 300 283 268 262 256 245 135 83 137 255 274 271 287 307 300 310 223 196 222 232
72 70 67 64 61 58 56 53 51 49 46 45 47 55 53 52 49 51 49 49 58 65 82 100 112 107 294 271 257 256 248 242 239 234 238 234 238 222 205 207 211 209 196 191 192 185 186 187 185 174 172 167 161 162 157 148 139 133 205 273 301 304 304 296 281 272 280 287 276 262 254 141 168 186 218 218 232 233 244 270 314 342 353 278 238
68 65 62 59 57 53 49 49 46 43 44 40 39 43 45 45 44 49 56 54 50 49 61 67 45 85 303 245 235 256 262 264 261 245 235 224 232 237 229 216 200 190 194 190 194 196 193 192 192 192 184 176 181 178 182 175 172 168 175 194 217 244 274 280 283 286 279 276 280 282 276 268 257 14 307 190 200 213 222 218 106 56 60 47 43
61 58 55 51 51 50 46 41 41 36 34 33 30 31 31 28 32 33 37 51 69 73 69 54 36 12 40 288 274 256 260 260 250 256 260 258 249 243 240 234 217 198 178 191 205 202 199 202 207 216 220 211 221 176 195 202 187 172 166 177 219 232 236 245 258 261 286 299 303 299 286 273 99 130 226 244 222 173 131 98 109 97 76 69 64
57 52 47 43 40 40 37 35 34 30 26 23 25 19 14 23 21 26 24 19 36 59 58 60 59 53 27 347 280 261 256 256 267 261 247 244 246 247 250 243 232 216 203 197 199 198 201 206 211 222 223 221 224 179 195 196 180 175 165 184 217 215 224 225 203 209 198 324 21 326 301 131 70 63 30 13 250 150 143 153 160 175 155 113 111
55 49 45 40 35 32 30 26 24 19 16 14 18 12 5 12 15 17 11 12 11 27 39 33 39 37 40 29 356 321 286 278 258 252 249 247 243 246 245 242 233 222 217 208 205 205 213 225 222 220 227 228 222 160 178 173 176 174 169 175 212 196 192 172 165 151 150 129 117 118 104 81 79 48 34 351 333 143 147 156 168 170 162 161 103
50 49 45 36 33 31 25 22 17 12 14 12 10 4 1 1 1 3 360 2 2 6 21 19 17 20 17 17 11 358 330 293 280 260 255 249 243 241 242 239 237 228 226 226 223 224 224 228 230 225 221 228 183 161 167 173 172 171 159 188 189 172 169 162 151 143 133 115 95 85 102 96 81 77 43 358 345 348 152 153 146 135 123 98 73
52 48 45 39 28 28 27 19 20 19 11 9 2 360 351 347 353 351 353 349 352 355 0 5 5 7 1 356 356 349 350 327 303 285 266 257 251 240 237 236 234 231 231 231 230 227 226 224 228 230 232 230 172 166 165 171 170 166 166 185 167 170 155 150 134 128 120 81 50 17 55 95 96 82 28 350 7 322 137 144 143 147 140 128 118
43 35 31 27 23 13 15 11 5 10 10 2 352 351 346 349 349 347 346 339 343 348 350 353 355 353 345 344 339 340 340 341 315 295 283 270 260 250 239 233 235 228 230 235 234 234 232 226 226 226 219 281 149 155 167 166 174 166 185 176 170 162 148 144 138 132 113 89 57 29 355 91 97 96 68 23 352 309 139 138 148 152 153 145 135
31 24 11 8 8 3 358 4 2 4 2 353 349 345 346 343 342 342 339 337 342 345 344 344 342 340 337 335 334 333 331 329 327 315 301 286 266 254 245 232 228 233 240 244 243 242 233 222 218 201 102 162 142 118 178 186 170 170 203 183 171 152 157 153 150 139 127 112 93 61 38 42 68 82 63 48 10 335 139 152 156 187 183 175 140
16 17 6 354 358 354 357 360 359 358 351 347 344 342 339 333 335 332 327 328 332 332 329 326 328 329 327 325 324 327 328 328 321 321 307 292 280 266 252 244 233 232 240 243 240 240 233 217 199 185 174 165 141 152 165 234 172 186 218 213 163 162 164 158 160 146 140 129 116 102 74 59 78 77 67 55 41 17 9 127 217 222 226 152 140
10 10 356 354 354 354 350 352 351 348 346 343 341 335 331 329 325 320 319 322 323 317 315 317 313 313 315 316 319 318 323 321 316 314 313 296 278 264 255 242 234 230 227 229 233 237 234 225 215 211 205 187 165 156 164 185 195 196 216 239 167 171 162 167 157 156 153 147 140 117 105 76 87 81 74 64 54 39 22 54 39 55 47 35 356
8 360 360 355 344 345 345 347 347 344 343 340 338 332 325 326 319 314 319 319 315 315 313 308 304 301 304 306 306 309 311 309 308 309 308 302 289 271 251 238 228 225 215 212 213 226 218 209 219 215 207 191 175 169 145 187 213 205 208 227 214 167 168 163 160 161 153 142 133 132 125 109 95 85 80 75 67 59 51 74 65 68 50 31 346
352 350 2 353 337 339 344 338 335 335 335 332 328 319 315 314 310 313 317 317 314 309 305 303 302 301 298 297 296 297 298 298 300 301 298 294 294 283 260 251 235 223 218 208 186 156 132 105 80 41 346 177 183 170 157 176 205 208 205 141 4 125 59 168 162 154 141 128 120 113 109 108 96 90 83 81 88 95 85 83 90 77 75 360 276
344 342 349 342 332 335 331 330 327 331 328 327 320 314 314 310 305 310 311 307 303 299 299 296 292 289 289 287 287 285 284 285 287 292 292 285 282 283 273 249 231 211 212 213 215 201 179 160 146 116 96 66 43 104 145 164 167 185 161 131 110 111 130 197 158 145 132 128 133 128 118 112 100 93 85 74 65 66 90 106 101 119 187 252 270
337 336 345 334 333 330 327 328 332 331 329 325 323 314 314 308 310 314 309 306 303 300 295 290 285 281 279 279 278 278 277 276 275 273 276 278 271 266 261 247 238 232 214 205 216 190 182 177 156 145 148 159 174 174 157 99 123 126 120 118 109 102 71 80 134 124 108 92 92 104 117 118 113 106 106 104 94 94 104 110 138 206 243 244 277
329 332 344 331 327 326 326 329 329 330 326 320 316 310 306 308 307 305 303 301 302 300 297 292 292 289 285 280 274 271 269 267 267 264 262 263 268 269 262 254 242 234 234 228 210 198 196 180 170 170 170 173 179 172 158 146 137 117 100 89 95 88 74 62 70 87 94 105 111 115 118 122 127 139 153 135 120 122 145 160 189 240 245 338 321
334 338 334 330 332 327 332 332 330 332 332 327 320 314 312 312 311 308 304 301 296 294 292 289 286 286 282 276 273 269 265 260 254 253 252 250 251 254 254 255 256 245 235 238 233 209 198 207 191 176 169 170 178 167 161 155 151 141 136 128 117 106 105 103 103 113 111 110 125 130 116 93 82 69 73 90 118 147 175 190 195 203 25 338 2
332 329 335 327 329 329 328 332 329 331 326 323 322 322 319 317 315 312 308 304 298 296 292 291 290 286 284 286 283 277 271 265 262 255 252 249 244 242 247 251 248 249 242 233 238 228 215 199 201 191 175 175 175 170 166 164 159 154 152 151 142 144 152 149 137 137 134 129 126 110 122 136 140 152 157 172 169 176 167 107 348 4 18 62 302
324 332 329 326 326 324 323 322 321 319 317 316 317 316 317 315 312 309 306 299 292 289 286 286 287 285 282 280 278 278 272 267 261 255 249 246 239 231 242 246 248 266 344 317 258 225 216 347 183 164 172 171 174 173 173 169 162 158 158 157 158 162 160 154 131 126 129 137 142 155 157 159 169 170 171 174 158 168 123 69 24 293 235 228 261
322 322 322 319 315 313 314 313 313 314 311 313 313 312 311 310 309 306 299 291 286 282 279 276 277 279 280 279 279 277 272 266 261 258 258 246 48 337 284 243 228 100 93 83 37 356 15 102 70 57 43 89 108 53 76 124 133 150 158 153 160 155 135 121 122 138 145 148 160 163 163 166 162 173 175 167 171 158 176 186 142 75 260 324 343
321 317 315 317 313 310 308 311 313 315 315 313 309 307 306 306 305 301 298 292 288 283 277 272 270 268 269 272 275 278 277 277 270 262 251 250 230 188 254 288 308 325 175 188 131 146 5 1 105 175 96 68 70 90 86 82 129 135 134 127 118 113 117 127 138 147 157 161 163 163 159 158 164 161 173 155 122 186 207 216 178 204 237 230 244